CAPE
11 5 16 9 4 3 4 3 4 1 0 0 0 27 0 0 0 0 1 0 0 0 0 0 0 0 0 0 1 0 0 0 0 5 0 1 6 20
1 0 0 0 0 0 0 0 1 2 0 0 0 0 0 0 0 0 0 0 0 0 0 0 0 0 0 0 0 0 0 0 0 0 0 2 2 1
0 0 0 0 0 0 0 0 0 0 0 0 0 0 0 0 0 0 0 0 0 0 0 0 0 0 0 0 0 0 0 0 0 0 0 1 1 2
0 0 0 0 0 1 0 1 0 1 0 0 0 0 0 1 1 0 0 0 0 0 0 0 0 0 0 0 0 0 1 1 0 0 0 0 0 0
0 0 0 0 0 1 0 1 1 0 2 3 0 0 3 4 0 0 0 0 0 0 0 0 0 0 0 0 0 1 0 0 0 1 1 1 1 1
5 6 3 1 1 1 0 1 0 3 4 7 5 3 5 3 2 1 0 0 0 0 0 0 0 0 0 0 0 0 0 0 0 0 0 1 0 1
1 0 0 0 0 0 0 2 0 1 4 5 10 10 16 8 8 6 7 7 3 1 2 0 0 0 1 0 0 0 0 0 0 0 0 0 1 1
0 0 0 0 0 0 0 0 0 2 4 8 10 16 10 6 7 9 12 2 10 0 3 1 2 2 1 4 0 0 0 0 0 0 0 0 0 1
2 2 0 0 0 0 0 0 0 0 0 4 8 18 16 19 23 17 7 1 2 5 18 32 9 18 12 7 0 0 0 0 0 0 0 0 0 0
0 0 0 0 0 0 0 0 0 0 0 1 2 12 19 21 14 16 26 24 15 31 20 26 40 37 28 17 0 0 0 0 0 0 0 0 0 0
0 0 0 0 0 1 1 1 0 2 0 0 0 0 0 0 2 26 47 50 25 40 43 37 42 26 41 56 16 0 0 0 0 0 0 0 0 0
0 0 0 0 0 1 4 4 7 3 2 5 4 5 5 20 1 15 54 53 53 45 48 12 2 3 23 27 38 23 24 0 0 0 0 0 0 2
0 0 2 0 2 3 1 6 7 7 9 23 28 44 35 33 56 60 64 95 58 63 70 49 33 19 15 44 22 29 46 27 11 0 0 0 0 0
3 8 7 3 4 2 8 2 5 10 22 32 35 29 38 45 40 42 41 50 65 61 64 63 38 26 29 26 29 26 76 56 50 54 30 0 0 0
7 11 5 2 4 10 3 7 13 24 28 33 31 31 32 36 25 31 58 25 59 54 36 59 52 16 6 5 5 9 27 55 57 57 62 31 9 9
5 32 20 9 16 24 29 29 32 26 27 22 32 32 29 30 28 21 45 57 68 32 5 16 36 12 0 0 1 0 3 7 30 20 32 25 15 8
8 42 39 33 28 21 22 24 26 20 27 31 27 29 24 23 26 26 25 30 35 4 0 1 7 8 1 0 0 0 0 3 33 22 13 11 3 4
25 26 34 35 28 29 29 28 20 22 27 26 31 28 28 29 26 25 24 27 21 21 47 72 24 0 3 1 2 0 3 11 18 14 3 11 12 4
21 29 33 32 34 29 29 29 26 26 26 33 29 27 27 28 24 28 27 26 26 26 15 30 17 1 10 31 23 1 10 6 5 5 9 4 2 1
28 29 31 30 31 33 33 34 30 26 26 24 28 28 27 28 25 26 26 19 26 22 19 16 9 2 11 26 3 3 0 8 4 3 2 3 3 2
14 23 18 27 31 33 31 29 24 27 24 26 26 28 28 29 23 22 22 11 15 22 22 18 32 2 2 0 8 5 3 0 0 3 9 13 11 6
27 25 25 27 30 32 35 31 27 23 24 28 30 32 31 32 21 16 18 18 17 16 13 3 0 1 2 10 23 4 9 7 0 0 0 1 6 9
26 26 29 31 31 32 27 27 24 28 22 24 24 28 20 18 17 18 14 13 13 11 4 0 6 9 15 15 13 8 5 6 22 18 17 0 0 0
CIN
-0 -0 -0 -0 -0 -0 -0 -0 -0 -0 -0 -0 -0 -8 -0 -0 -0 -0 -0 -0 -0 -0 -0 -0 -0 -0 -0 -0 -0 -0 -0 -0 -0 -89 -0 -18 -47 -6
-0 -0 -0 -0 -0 -0 -0 -0 -0 -0 -0 -0 -0 -0 -0 -0 -0 -0 -0 -0 -0 -0 -0 -0 -0 -0 -0 -0 -0 -0 -0 -0 -0 -0 -0 -53 -0 -0
-0 -0 -0 -0 -0 -0 -0 -0 -0 -0 -0 -0 -0 -0 -0 -0 -0 -0 -0 -0 -0 -0 -0 -0 -0 -0 -0 -0 -0 -0 -0 -0 -0 -0 -0 -0 -0 -0
-0 -0 -0 -0 -0 -0 -0 -0 -0 -0 -0 -0 -0 -0 -0 -0 -0 -0 -0 -0 -0 -0 -0 -0 -0 -0 -0 -0 -0 -0 -0 -0 -0 -0 -0 -0 -0 -0
-0 -0 -0 -0 -0 -0 -0 -0 -0 -0 -0 -0 -0 -0 -0 -0 -0 -0 -0 -0 -0 -0 -0 -0 -0 -0 -0 -0 -0 -0 -0 -0 -0 -0 -0 -0 -0 -0
-0 -0 -0 -0 -0 -0 -0 -0 -0 -0 -0 -0 -0 -0 -0 -0 -0 -0 -0 -0 -0 -0 -0 -0 -0 -0 -0 -0 -0 -0 -0 -0 -0 -0 -0 -0 -0 -0
-0 -0 -0 -0 -0 -0 -0 -0 -0 -0 -0 -0 -0 -0 -0 -0 -0 -0 -0 -0 -0 -0 -0 -0 -0 -0 -0 -0 -0 -0 -0 -0 -0 -0 -0 -0 -0 -0
-0 -0 -0 -0 -0 -0 -0 -0 -0 -0 -0 -0 -0 -0 -0 -0 -0 -0 -1 -0 -0 -0 -0 -0 -0 -0 -0 -2 -0 -0 -0 -0 -0 -0 -0 -0 -0 -0
-0 -0 -0 -0 -0 -0 -0 -0 -0 -0 -0 -1 -0 -0 -0 -0 -0 -0 -0 -0 -0 -0 -0 -0 -0 -0 -0 -8 -0 -0 -0 -0 -0 -0 -0 -0 -0 -0
-0 -0 -0 -0 -0 -0 -0 -0 -0 -0 -0 -0 -0 -0 -0 -0 -0 -0 -0 -0 -0 -0 -0 -0 -0 -0 -0 -1 -0 -0 -0 -0 -0 -0 -0 -0 -0 -0
-0 -0 -0 -0 -0 -0 -0 -0 -0 -0 -0 -0 -0 -0 -0 -0 -4 -1 -0 -0 -0 -0 -0 -1 -0 -0 -0 -0 -27 -0 -0 -0 -0 -0 -0 -0 -0 -0
-0 -0 -0 -0 -0 -0 -0 -0 -0 -0 -0 -0 -0 -0 -3 -1 -11 -31 -0 -0 -0 -0 -0 -3 -0 -1 -1 -0 -0 -2 -0 -0 -0 -0 -0 -0 -0 -0
-0 -0 -0 -0 -0 -0 -0 -0 -0 -0 -0 -0 -0 -0 -0 -0 -0 -0 -0 -0 -0 -0 -0 -0 -0 -2 -0 -1 -4 -1 -0 -6 -0 -0 -0 -0 -0 -0
-0 -0 -0 -0 -0 -0 -0 -0 -0 -0 -0 -0 -0 -0 -0 -0 -0 -0 -0 -0 -0 -0 -0 -0 -0 -0 -0 -0 -0 -4 -0 -2 -0 -0 -0 -0 -0 -0
-0 -0 -0 -0 -0 -1 -0 -0 -0 -0 -0 -0 -0 -0 -0 -0 -0 -0 -0 -0 -0 -0 -0 -0 -0 -2 -0 -0 -0 -1 -1 -0 -0 -0 -0 -0 -0 -4
-0 -0 -0 -0 -0 -0 -0 -0 -0 -0 -0 -0 -0 -0 -0 -0 -0 -0 -0 -0 -0 -0 -22 -14 -0 -2 -0 -0 -0 -0 -0 -0 -0 -1 -0 -0 -5 -8
-0 -0 -0 -0 -0 -0 -0 -0 -0 -0 -0 -0 -0 -0 -0 -0 -0 -0 -0 -0 -0 -0 -0 -0 -1 -0 -0 -0 -0 -0 -0 -0 -0 -0 -0 -0 -6 -7
-0 -0 -0 -0 -0 -0 -0 -0 -0 -0 -0 -0 -0 -0 -0 -0 -0 -0 -0 -0 -0 -0 -0 -0 -0 -0 -0 -0 -0 -0 -0 -0 -3 -1 -5 -0 -0 -2
-0 -0 -0 -0 -0 -0 -0 -0 -0 -0 -0 -0 -0 -0 -0 -0 -0 -0 -0 -0 -0 -0 -0 -0 -0 -0 -0 -0 -7 -0 -0 -1 -0 -0 -0 -0 -0 -0
-0 -0 -0 -0 -0 -0 -0 -0 -0 -0 -0 -0 -0 -0 -0 -0 -0 -0 -0 -0 -0 -0 -0 -0 -0 -0 -0 -0 -2 -0 -0 -0 -0 -0 -0 -1 -0 -0
-0 -0 -0 -0 -0 -0 -0 -0 -0 -0 -0 -0 -0 -0 -0 -0 -0 -0 -0 -0 -0 -0 -0 -0 -0 -0 -0 -0 -0 -0 -0 -0 -0 -0 -0 -0 -0 -0
-0 -0 -0 -0 -0 -0 -0 -0 -0 -0 -0 -0 -0 -0 -0 -0 -0 -0 -0 -0 -0 -0 -0 -0 -0 -0 -0 -0 -0 -0 -0 -0 -0 -0 -0 -0 -0 -0
-0 -0 -0 -0 -0 -0 -0 -0 -0 -0 -0 -0 -0 -0 -0 -0 -0 -0 -0 -0 -0 -0 -0 -0 -0 -0 -0 -0 -0 -0 -0 -0 -0 -0 -0 -0 -0 -0
Wind_Speed
9 3 3 4 3 4 4 3 1 3 6 6 6 4 6 8 7 9 10 6 7 4 7 10 11 10 10 10 10 10 10 10 17 15 17 22 24 25
5 7 7 3 5 6 4 3 1 2 5 5 8 10 10 8 7 10 10 12 9 5 6 8 9 10 10 9 11 10 9 9 9 6 12 20 20 21
8 8 7 6 5 5 3 4 2 3 7 8 8 8 10 10 9 8 10 8 2 3 6 6 5 6 7 8 8 10 10 8 7 8 8 12 17 20
9 11 10 7 10 7 4 4 1 4 5 10 9 8 9 10 10 11 9 9 9 0 2 1 4 4 5 5 7 7 9 8 6 6 6 6 16 21
12 13 12 11 9 8 7 7 6 6 7 8 9 8 9 9 11 10 10 11 11 11 8 9 6 6 3 4 5 7 7 8 8 7 6 7 7 8
11 12 12 13 10 9 7 7 8 7 8 7 8 8 9 9 9 10 10 9 11 13 12 4 7 7 5 3 10 9 10 10 9 7 7 7 8 9
11 11 12 10 8 7 8 10 10 9 9 7 9 8 8 9 9 7 8 10 12 12 9 7 9 8 4 5 10 13 14 13 11 9 9 8 9 10
9 11 8 10 11 14 14 14 12 11 10 9 8 9 12 10 8 7 8 10 11 7 11 10 10 10 7 1 7 9 11 13 11 12 11 11 10 11
10 10 9 8 16 15 15 15 12 9 11 9 11 10 11 10 10 9 10 12 12 11 13 10 10 10 9 2 9 7 4 7 8 9 10 11 11 11
10 12 11 12 16 16 15 13 13 12 12 10 14 14 11 11 11 12 14 15 13 10 11 12 8 9 8 8 8 6 2 5 5 7 7 7 7 7
10 11 10 11 17 18 14 13 13 11 14 21 20 21 21 21 21 12 11 12 12 10 8 8 6 10 9 8 3 7 5 7 6 4 3 4 6 5
10 9 17 17 20 19 15 14 13 15 16 16 15 15 15 15 14 13 10 12 11 11 7 5 5 5 3 1 5 3 5 10 8 6 3 3 7 1
9 9 10 22 20 19 17 11 14 15 15 13 12 11 13 12 10 11 11 11 11 11 7 8 9 9 8 7 3 7 7 3 5 6 7 5 2 3
10 9 11 19 19 18 13 17 17 12 8 8 9 9 10 11 12 13 16 15 12 14 12 11 6 6 7 7 6 3 7 4 4 5 5 6 6 5
9 12 14 16 16 12 16 15 12 8 8 9 9 10 10 11 13 14 16 17 17 15 10 12 10 10 9 9 6 7 7 4 5 4 3 4 4 3
12 9 9 11 11 10 10 10 9 8 9 10 10 11 11 10 11 10 12 12 12 9 10 12 14 12 10 9 9 8 7 5 4 4 4 3 3 4
13 8 8 9 10 10 10 10 10 10 10 10 11 11 12 12 12 11 12 12 12 11 11 9 9 12 9 10 7 8 8 7 6 6 5 5 4 4
8 9 9 10 11 12 12 12 11 12 10 11 10 11 11 12 12 12 12 12 11 11 9 10 8 3 3 6 13 8 7 6 4 3 3 5 5 5
10 10 10 11 12 11 11 11 12 11 14 11 11 11 12 12 14 12 12 12 12 11 10 9 7 5 7 8 1 20 8 6 3 2 4 5 8 7
11 11 11 11 11 11 11 11 12 12 11 12 12 12 11 12 13 12 12 13 13 13 12 10 5 5 7 8 3 0 6 1 1 4 6 4 7 7
11 11 11 11 11 11 12 12 13 12 13 12 12 12 12 12 13 13 13 18 17 12 12 11 7 8 5 1 3 3 3 3 2 4 5 5 5 4
11 12 12 11 11 11 12 11 12 12 12 12 12 12 12 12 13 14 13 14 14 12 13 10 5 1 2 3 5 3 4 4 4 5 6 6 3 3
12 12 12 12 11 11 12 12 13 13 13 13 13 13 13 14 13 13 13 13 13 13 12 4 1 2 2 3 3 1 3 3 3 4 3 5 8 9
Wind_Direction
339 57 73 99 74 70 60 57 105 265 287 293 293 48 30 346 360 340 305 50 116 86 28 353 351 330 307 297 280 275 280 295 319 188 178 187 195 205
94 53 48 62 75 62 45 50 42 297 271 310 335 335 352 327 326 318 322 297 159 90 61 32 352 344 329 314 304 296 299 307 309 307 222 207 204 203
100 86 78 50 44 71 81 67 7 338 281 287 312 334 317 310 314 340 318 327 32 107 68 44 354 1 345 323 309 304 300 296 298 285 264 230 217 211
97 83 64 51 46 27 23 48 64 308 292 296 305 301 301 311 332 336 324 334 329 79 32 332 295 332 345 344 322 325 316 316 305 289 280 254 225 216
61 64 54 50 44 20 13 1 348 335 315 303 301 316 317 336 331 325 334 335 315 319 305 249 235 309 319 319 14 354 354 330 316 304 278 269 256 241
61 59 52 46 28 22 7 10 350 336 317 313 312 314 324 328 312 333 332 332 324 311 305 286 309 289 224 162 82 37 2 345 330 303 271 255 246 245
51 59 61 62 52 34 9 359 346 337 320 308 307 313 314 314 328 327 315 321 308 292 313 336 330 321 319 181 68 35 351 328 315 304 286 261 237 232
47 40 43 50 34 359 18 345 313 304 306 319 309 305 301 316 313 316 322 310 308 300 334 311 313 303 297 284 106 50 352 338 321 304 288 272 257 242
36 37 7 64 32 359 343 312 307 260 239 281 291 293 303 312 312 322 296 291 286 293 300 296 300 288 293 81 135 119 330 323 327 331 318 291 272 249
43 45 21 13 22 354 335 328 327 323 317 332 333 318 307 303 306 294 292 284 279 272 276 277 279 287 293 295 154 148 163 291 320 346 346 342 321 276
32 52 26 9 5 351 330 330 324 330 344 333 317 308 302 290 270 277 277 276 278 282 285 287 274 281 279 268 205 189 214 251 284 312 357 3 357 342
24 20 66 21 355 353 343 330 344 339 328 318 310 310 297 291 262 244 266 268 278 283 281 282 268 269 288 141 264 246 218 212 243 254 262 324 340 11
11 1 360 360 349 346 336 353 335 321 311 319 325 314 311 307 300 290 289 273 265 263 263 277 280 285 279 283 287 295 278 220 218 218 220 234 250 311
7 358 352 344 345 338 340 337 327 317 331 314 311 309 311 313 315 312 305 295 285 277 281 267 263 250 249 261 262 249 258 242 248 250 210 158 204 232
357 336 338 347 343 344 342 339 333 338 328 322 318 320 317 307 300 295 299 296 292 290 273 262 258 255 250 255 253 251 240 224 231 248 218 210 228 231
349 324 344 352 348 346 340 344 340 335 333 323 326 316 309 313 310 307 305 306 291 285 281 266 260 249 245 237 239 243 239 233 205 223 245 233 212 209
333 347 351 353 350 349 347 347 343 342 336 335 322 320 321 317 314 314 310 303 299 283 285 274 254 246 241 236 233 226 234 244 233 226 230 248 234 229
350 359 352 354 351 346 344 340 338 337 334 323 320 318 313 313 313 312 307 306 301 303 277 277 263 216 232 236 220 238 239 235 226 219 216 242 246 240
6 1 355 351 345 340 335 332 331 330 324 322 322 318 319 314 317 311 309 308 306 306 302 290 276 217 245 256 287 212 228 220 171 186 231 252 260 254
3 355 347 341 334 330 329 329 325 325 325 322 318 318 319 315 313 311 311 308 307 304 299 292 254 241 243 260 285 31 196 249 197 266 265 243 245 249
350 345 341 337 333 331 329 325 321 321 320 319 319 317 317 316 311 308 305 306 305 298 297 302 303 257 251 159 214 186 172 185 232 271 281 272 257 237
348 343 339 332 330 327 324 322 324 321 320 319 315 315 316 312 308 307 304 303 301 296 289 285 276 278 220 234 265 240 138 163 196 191 220 254 289 262
345 338 331 330 328 327 327 325 319 316 316 314 314 316 315 310 306 300 298 298 294 294 294 292 273 255 261 254 274 126 127 195 193 216 207 223 245 250